Regional Weather Roundup
Issued by NWS

Home | Current Version | Previous Version | Text Only | Print | Product List | Glossary On
Versions: 1 2 3 4 5 6 7 8 9 10 11 12 13 14 15 16 17 18 19 20 21 22 23 24 25 26 27 28 29 30 31 32 33 34 35 36 37 38 39 40 41 42 43 44 45 46 47 48 49 50
000
ASUS46 KSEW 220910
RWRWA

WASHINGTON REGIONAL WEATHER ROUNDUP
NATIONAL WEATHER SERVICE SEATTLE WA
200 AM PDT FRI MAY 22 2015

NOTE:"FAIR" INDICATES FEW OR NO CLOUDS BELOW 12,000 FEET WITH NO
SIGNIFICANT WEATHER AND/OR OBSTRUCTIONS TO VISIBILITY.

WAZ505-507>509-221000-
SEATTLE, TACOMA, EVERETT, AND VICINITY

CITY           SKY/WX    TMP DP  RH WIND       PRES   REMARKS
EVERETT        MOCLDY    54  51  90 CALM      29.90R
BOEING FIELD   MOCLDY    58  50  75 S6        29.90R
RENTON         MOCLDY    57  51  80 S8        29.91R
SEATAC AIRPORT MOCLDY    54  50  86 S9        29.91S
JBLM-MCCHORD   NOT AVBL
PUYALLUP       FAIR      54  54 100 CALM      29.92R
BREMERTON      CLOUDY    54  52  94 SW10      29.94S
JBLM-FT LEWIS  MOCLDY    54  52  93 SW8       29.91F
TACOMA NARROWS MOCLDY    53  50  89 SW8       29.91F
$$

WAZ001-503-506-510-514-515-221000-
NORTH INTERIOR

CITY           SKY/WX    TMP DP  RH WIND       PRES   REMARKS
BELLINGHAM     PTCLDY    58  51  78 S12       29.87R
FRIDAY HARBOR  CLEAR     47  46  97 CALM      29.88R
EASTSOUND      CLEAR     54  50  87 S8        29.85R
PORT ANGELES   CLOUDY    50  49  96 NW14      29.90R
PORT TOWNSEND  CLOUDY    50  50 100 CALM      29.90R FOG
NAS WHIDBEY    FOG       52  50  93 SW10      29.94R VSB 1
ARLINGTON      MOCLDY    54  46  76 W8        29.89S
BURLINGTON     CLEAR     50  50 100 W5        29.90R
$$

WAZ020-022-039-040-504-511-512-221000-
SOUTHWEST INTERIOR

CITY           SKY/WX    TMP DP  RH WIND       PRES   REMARKS
SHELTON        CLOUDY    51  49  92 SW15      29.91S
OLYMPIA        CLOUDY    53  49  86 SW6       29.92F
CHEHALIS       CLOUDY    54  52  94 CALM      29.94S
KELSO          CLOUDY    55  48  76 W10       29.98S
VANCOUVER      CLOUDY    56  48  74 NW5       29.93R
SCAPPOOSE, OR  MOCLDY    55  48  77 N9        29.92S
PORTLAND, OR   CLOUDY    57  50  77 NW5       29.94R
$$

WAZ021-516-517-221000-
WASHINGTON COAST

CITY           SKY/WX    TMP DP  RH WIND       PRES   REMARKS
FORKS          CLOUDY    50  50 100 W6        29.95S FOG
HOQUIAM        CLOUDY    52  51  97 W8        29.96R FOG
ASTORIA, OR    CLOUDY    53  50  89 W3        29.97S
$$

WAZ019-023-024-040-518-519-221000-
CASCADE MOUNTAINS AND COLUMBIA GORGE

CITY           SKY/WX    TMP DP  RH WIND       PRES   REMARKS
TROUTDALE, OR  CLOUDY    59  50  72 CALM      29.92R
THE DALLES, OR MOCLDY    67  57  70 MISG      29.80S
$$

WAZ026-027-041>044-520-521-221000-
EAST SLOPES

CITY           SKY/WX    TMP DP  RH WIND       PRES   REMARKS
OMAK           MOCLDY    60  46  59 NW9       29.81R
WENATCHEE      MOCLDY    67  48  50 W6        29.81S
ELLENSBURG     MOCLDY    62  52  69 NW14      29.82F
YAKIMA         MOCLDY    62  51  67 W6        29.81S
$$

WAZ028-034-035-221000-
COLUMBIA BASIN

CITY           SKY/WX    TMP DP  RH WIND       PRES   REMARKS
EPHRATA        MOCLDY    62  46  55 S5        29.80R
MOSES LAKE     MOCLDY    65  53  65 S7        29.81R
PASCO          PTCLDY    64  55  72 SW6       29.79R
HERMISTON, OR  PTCLDY    61  53  75 S6        29.80S
$$

WAZ036>038-221000-
NORTHEAST WASHINGTON

CITY           SKY/WX    TMP DP  RH WIND       PRES   REMARKS
SPOKANE GEIGER MOCLDY    64  51  62 W7        29.84S
SPOKANE FELTS  CLOUDY    66  51  58 CALM      29.83F
FAIRCHILD AFB  MOCLDY    59  51  75 CALM      29.84F
COEURDALENE,ID PTCLDY    61  46  59 CALM      29.84S
DEER PARK      MOCLDY    55  49  80 N5        29.84F
$$

WAZ029>033-221000-
SOUTHEAST WASHINGTON

CITY           SKY/WX    TMP DP  RH WIND       PRES   REMARKS
PULLMAN        MOCLDY    57  52  83 CALM      29.87S
LEWISTON, ID   MOCLDY    63  53  70 SE6       29.83R
WALLA WALLA    CLOUDY    65  53  65 S7        29.82S
PENDLETON, OR  PTCLDY    58  51  78 SE6       29.84R
$$


USA.gov is the U.S. government's official web portal to all federal, state and local government web resources and services.